Weather History for GMMC - January, 2013

Change the Weather History Date:

Friday, January 4, 2013

  Actual Average (GMMN) Record (GMMN)
Temperature  
Mean Temperature 58 °F -  
Max Temperature 70 °F 61 °F 75 °F (2002)
Min Temperature 45 °F 41 °F 33 °F (2012)
Degree Days  
Heating Degree Days 8    
Growing Degree Days 8 (Base 50)    
Moisture  
Dew Point 44 °F    
Average Humidity 58    
Maximum Humidity 82    
Minimum Humidity 32    
Precipitation  
Precipitation 0.00 in 0.08 in - ()
Sea Level Pressure  
Sea Level Pressure 30.35 in    
Wind  
Wind Speed 3 mph ()    
Max Wind Speed 7 mph    
Max Gust Speed -    
Visibility 6.0 miles    
Events      
Averages and records for this station are not official NWS values.
T = Trace of Precipitation, MM = Missing Value Source: Averaged Metar Reports

Daily Weather History Graph

Daily Weather History Graph

Search for Another Location

Airport or City:

Trip Planner

Search our weather history database for the weather conditions in past years. The results will help you decide how hot, cold, wet, or windy it might be!

Date:

Astronomy

Jan. 04, 2013 Rise Set
Actual Time 7:35 AM WET 5:36 PM WET
Civil Twilight 7:08 AM WET 6:03 PM WET
Nautical Twilight 6:37 AM WET 6:34 PM WET
Astronomical Twilight 6:07 AM WET 7:04 PM WET
Moon No Moon Rise 11:32 AM WET (1/4)
Length of Visible Light 10h 55m
Length of Day
10h 00m
Waning Gibbous, 57% of the Moon is Illuminated
Jan 4
Waning Gibbous
Jan 5
Last Quarter
Jan 11
New
Jan 18
First Quarter
Jan 27
Full

Hourly Weather History & Observations

Time (WET) Temp. Dew Point Humidity Pressure Visibility Wind Dir Wind Speed Gust Speed Precip Events Conditions
12:00 AM 52 °F 39 °F 49% 30.29 in 6 mi ESE 2.3 mph - -  
12:00 AM 51.8 °F 39.2 °F 62% 30.24 in - ESE 2.3 mph - N/A   Clear
1:00 AM 50.0 °F 37.4 °F 62% 30.27 in - East 2.3 mph - N/A   Clear
3:00 AM 48 °F 41 °F 70% 30.30 in 6 mi 2.3 mph - -  
3:00 AM 48.2 °F 41.0 °F 76% 30.27 in - East 2.3 mph - N/A   Clear
4:00 AM 48.2 °F 42.8 °F 82% 30.27 in - East 2.3 mph - N/A   Clear
5:00 AM 46.4 °F 41.0 °F 81% 30.27 in - South 2.3 mph - N/A   Clear
6:00 AM 46 °F 38 °F 66% 30.31 in 6 mi South 4.6 mph - -  
6:00 AM 46.4 °F 39.2 °F 76% 30.27 in - South 2.3 mph - N/A   Clear
7:00 AM 46.4 °F 39.2 °F 76% 30.27 in - South 2.3 mph - N/A   Clear
9:00 AM 51 °F - %  in 6 mi South 4.6 mph - -  
10:00 AM 57.2 °F 42.8 °F 59% 30.33 in - South 6.9 mph - N/A   Clear
11:00 AM 64.4 °F 48.2 °F 56% 30.39 in - SW 4.6 mph - N/A   Clear
12:00 PM 67 °F 46 °F 36% 30.41 in 6 mi WSW 6.9 mph - -  
12:00 PM 66.2 °F 46.4 °F 49% 30.39 in - WSW 6.9 mph - N/A   Clear
1:00 PM 69.8 °F 44.6 °F 40% 30.36 in - West 6.9 mph - N/A   Clear
2:00 PM 71.6 °F 44.6 °F 38% 30.36 in - WSW 4.6 mph - N/A   Clear
3:00 PM 70 °F 47 °F 32% 30.39 in 6 mi SW 6.9 mph - -  
3:00 PM 69.8 °F 46.4 °F 43% 30.36 in - SW 6.9 mph - N/A   Clear
4:00 PM 69.8 °F 44.6 °F 40% 30.36 in - West 6.9 mph - N/A   Clear
5:00 PM 66.2 °F 44.6 °F 46% 30.36 in - West 5.8 mph - N/A   Clear
6:00 PM 64 °F 47 °F 43% 30.42 in 6 mi West 4.6 mph - -  
6:00 PM 64.4 °F 46.4 °F 52% 30.39 in - West 4.6 mph - N/A   Clear
7:00 PM 64.4 °F 46.4 °F 52% 30.39 in - West 4.6 mph - N/A   Clear
8:00 PM 57.2 °F 46.4 °F 67% 30.42 in - SSW 3.5 mph - N/A   Clear
9:00 PM 58 °F 47 °F 56% 30.46 in 6 mi SSW 3.5 mph - -  
9:00 PM - - N/A% 30.42 in - SSW 3.5 mph - N/A   Clear
10:00 PM 55.4 °F 46.4 °F 72% 30.42 in - South 3.5 mph - N/A   Clear
11:00 PM 55.4 °F 48.2 °F 77% 30.42 in - SSW 3.5 mph - N/A   Clear